Regional Weather Roundup
Issued by NWS

Home | Current Version | Previous Version | Graphics & Text | Print | Product List | Glossary Off
Versions: 1 2 3 4 5 6 7 8 9 10 11 12 13 14 15 16 17 18 19 20 21 22 23 24 25 26 27 28 29 30 31 32 33 34 35 36 37 38 39 40 41 42 43 44 45 46 47 48 49 50

000
ASUS43 KFSD 030710
RWRSD

WEATHER ROUNDUP FOR SOUTH DAKOTA
NATIONAL WEATHER SERVICE SIOUX FALLS SD
200 AM CDT WED JUN 03 2015

NOTE: "FAIR" INDICATES FEW OR NO CLOUDS BELOW 12,000 FEET WITH NO
SIGNIFICANT WEATHER AND/OR OBSTRUCTIONS TO VISIBILITY.


SDZ001>005-009-010-012>017-030800-
NORTHWEST AND NORTH CENTRAL SOUTH DAKOTA

CITY           SKY/WX    TMP DP  RH WIND       PRES   REMARKS
BUFFALO          N/A     55  51  86 NW13      29.88R
FAITH            N/A     62  52  69 N7        29.86F
MOBRIDGE       CLOUDY    63  57  81 NW18G25   29.79R
$$

SDZ012>016-024>037-041>051-057-063-072>074-030800-
SOUTHWEST AND SOUTH CENTRAL SOUTH DAKOTA

CITY           SKY/WX    TMP DP  RH WIND       PRES   REMARKS
RAPID CTY ARPT MOCLDY    56  52  86 NW13      29.92F
PIERRE         CLOUDY    67  62  84 W14       29.81R
CUSTER         CLEAR     48  32  53 NW7       30.02S
ELLSWORTH AFB  PTCLDY    54  53  95 W10       29.91R
PHILIP         LGT RAIN  62 N/A N/A N20G30    29.84F
PINE RIDGE     PTCLDY    56  51  84 NE7       29.92F
SPEARFISH      FAIR      50  48  93 CALM      29.95F
WINNER         FAIR      69  55  60 N22G28    29.77F
$$

SDZ004>011-016>023-039-040-030800-
NORTHEAST SOUTH DAKOTA

CITY           SKY/WX    TMP DP  RH WIND       PRES   REMARKS
ABERDEEN       CLOUDY    69  65  86 SW9       29.74R
WATERTOWN      CLOUDY    68  61  78 S14       29.78R
BROOKINGS      CLOUDY    66  59  77 S21       29.82S
SISSETON         N/A     72  63  73 SW13      29.71R
$$

SDZ017-020-022-023-036>040-048>070-030800-
SOUTHEAST SOUTH DAKOTA

CITY           SKY/WX    TMP DP  RH WIND       PRES   REMARKS
SIOUX FALLS    CLOUDY    65  59  81 S12       29.83S
HURON          CLOUDY    71  63  75 S14       29.76S
CHAMBERLAIN    LGT RAIN  64  58  82 NW10G17   29.84R
MITCHELL       CLOUDY    70  61  73 SW10G21   29.78F
YANKTON        CLOUDY    66  61  82 SW13      29.84R
$$

ABBREVIATIONS USED IN REMARKS
   TC - TEMPERATURE IN CELSIUS
  WCI - WIND CHILL INDEX
   HX - HEAT INDEX
  VSB - VISIBILITY




USA.gov is the U.S. government's official web portal to all federal, state and local government web resources and services.